This demonstration page uses our WeatherBlox Daily Observations layout. Learn more.

Left ArrowRight Arrow

Hourly Observations for November 15, 2018

Temp ( °F °C ) Dew Point ( °F °C ) Humidity (%) Winds ( mph kmh ) Pressure ( in mb ) Visibility ( mi km ) Precip ( " mm )
12:21 am 00:21 Cloudy with Freezing Rain 31 -0.6 26 -3.3 82 82 ENE 13 20 30.33 1027 6 10 0.03 0.76
12:53 am 00:53 Cloudy with Freezing Rain 31 -0.6 27 -2.8 85 85 ENE 10 17 30.29 1026 5 8 0.06 1.52
1:53 am 01:53 Cloudy with Freezing Rain 31 -0.6 28 -2.2 89 89 VRB 7 11 30.25 1025 4 6 0.13 3.30
2:22 am 02:22 Cloudy with Light Wintry Mix 32 undefined 28 -2.2 85 85 ENE 9 15 30.24 1024 4 6 0.08 2.03
2:53 am 02:53 Cloudy with Light Wintry Mix 32 undefined 29 -1.7 88 88 ESE 6 9 30.26 1025 4 6 0.16 4.06
3:50 am 03:50 Cloudy with Freezing Rain 32 undefined 28 -2 87 87 E 12 19 30.21 1023 4 6 0.11 2.79
3:53 am 03:53 Cloudy with Freezing Rain 32 undefined 29 -1.7 88 88 E 8 13 30.21 1023 4 6 0.12 3.05
4:00 am 04:00 Cloudy with Freezing Rain 32 undefined 30 -1.1 92 92 E 10 17 30.21 1023 4 6 0.02 0.51
4:09 am 04:09 Cloudy with Freezing Rain 32 undefined 29 -1.7 88 88 E 9 15 30.21 1023 4 6 0.04 1.02
4:53 am 04:53 Cloudy with Freezing Rain 32 undefined 30 -1.1 92 92 E 10 17 30.17 1022 5 8 0.11 2.79
5:02 am 05:02 Cloudy with Freezing Rain 32 undefined 30 -1.1 92 92 E 9 15 30.18 1022 5 8 0.01 0.25
5:12 am 05:12 Cloudy with Light Freezing Rain 33 0.6 30 -1.1 89 89 E 9 15 30.18 1022 6 10 0.01 0.25
5:39 am 05:39 Cloudy with Light Rain 33 0.6 30 -1.1 89 89 E 8 13 30.18 1022 6 10 0.03 0.76
5:53 am 05:53 Cloudy with Rain 33 0.6 30 -1.1 89 89 ESE 7 11 30.17 1022 6 10 0.05 1.27
6:53 am 06:53 Cloudy with Light Rain 33 0.6 30 -1.1 89 89 E 8 13 30.14 1021 9 14 0.06 1.52
7:53 am 07:53 Cloudy with Light Rain 33 0.6 30 -1.1 89 89 ENE 5 7 30.13 1020 5 8 0.02 0.51
8:50 am 08:50 Cloudy with Light Rain 34 1 30 -1 87 87 E 6 9 30.12 1020 5 8 0.02 0.51
8:53 am 08:53 Cloudy with Rain 33 0.6 31 -0.6 92 92 E 7 11 30.10 1019 4 6 0.03 0.76
9:08 am 09:08 Cloudy with Rain 33 0.6 31 -0.6 92 92 E 5 7 30.12 1020 3 5 0.01 0.25
9:32 am 09:32 Cloudy with Light Rain 33 0.6 31 -0.6 92 92 N N/A 30.12 1020 4 6 0.02 0.51
9:53 am 09:53 Cloudy with Light Rain 33 0.6 31 -0.6 92 92 N N/A 30.09 1019 4 6 0.03 0.76
10:53 am 10:53 Cloudy with Light Rain 33 0.6 31 -0.6 92 92 N N/A 30.09 1019 5 8 0.04 1.02
11:37 am 11:37 Cloudy with Mist and Fog 33 0.6 32 undefined 96 96 N N/A 30.12 1020 2 3 N/A
11:51 am 11:51 Cloudy with Light Wintry Mix 34 1 32 undefined 93 93 N N/A 30.12 1020 2 3 N/A
11:53 am 11:53 Cloudy with Light Wintry Mix 34 1.1 32 undefined 92 92 N N/A 30.07 1018 2 3 N/A
12:19 pm 12:19 Cloudy with Mist and Fog 34 1.1 32 undefined 92 92 N N/A 30.09 1019 3 5 N/A
12:48 pm 12:48 Cloudy with Mist and Fog 34 1 32 undefined 93 93 N N/A 30.09 1019 5 8 N/A
12:53 pm 12:53 Cloudy with Mist and Fog 34 1.1 33 0.6 97 97 N N/A 30.04 1017 6 10 N/A
1:05 pm 13:05 Cloudy with Mist and Fog 34 1.1 32 undefined 92 92 S 5 7 30.09 1019 4 6 N/A
1:34 pm 13:34 Cloudy with Light Rain 35 1.7 33 0.6 93 93 N N/A 30.03 1017 4 6 N/A
1:53 pm 13:53 Cloudy with Mist and Fog 35 1.7 33 0.6 93 93 N N/A 30.01 1016 6 10 N/A
2:17 pm 14:17 Cloudy with Mist and Fog 35 1.7 33 0.6 93 93 N N/A 30.00 1016 6 10 N/A
2:53 pm 14:53 Cloudy with Mist and Fog 35 1.7 33 0.6 93 93 SSW 3 6 30.00 1016 6 10 N/A
3:53 pm 15:53 Cloudy 35 1.7 33 0.6 93 93 WSW 3 6 29.98 1015 7 11 0.01 0.25
4:44 pm 16:44 Cloudy with Light Snow 34 1.1 32 undefined 92 92 W 6 9 30.00 1016 3 4 0.01 0.25
4:50 pm 16:50 Cloudy with Light Snow 34 1 32 undefined 93 93 W 3 6 30.00 1016 2 2 0.02 0.51
4:53 pm 16:53 Cloudy with Light Snow 34 1.1 32 undefined 92 92 W 3 6 29.99 1016 2 2 0.02 0.51
5:29 pm 17:29 Cloudy with Light Snow 33 0.6 31 -0.6 92 92 SW 3 6 30.03 1017 2 3 0.02 0.51
5:39 pm 17:39 Cloudy with Light Snow 33 0.6 31 -0.6 92 92 WSW 3 6 30.03 1017 4 6 0.02 0.51
5:53 pm 17:53 Cloudy with Light Wintry Mix 34 1.1 31 -0.6 89 89 W 3 6 29.99 1016 6 10 0.03 0.76
6:30 pm 18:30 Cloudy 34 1.1 32 undefined 92 92 W 6 9 30.00 1016 8 13 N/A
6:41 pm 18:41 Cloudy with Light Wintry Mix 34 1.1 32 undefined 92 92 W 7 11 30.00 1016 8 13 N/A
6:53 pm 18:53 Cloudy with Light Snow 34 1.1 32 undefined 92 92 W 7 11 30.00 1016 5 8 N/A
7:53 pm 19:53 Cloudy 34 1.1 31 -0.6 89 89 WSW 7 11 30.00 1016 10 16 N/A
8:53 pm 20:53 Cloudy 34 1.1 31 -0.6 89 89 WSW 10 17 30.01 1016 9 14 N/A
9:53 pm 21:53 Cloudy 33 0.6 31 -0.6 92 92 SW 7 11 30.02 1017 10 16 N/A
10:35 pm 22:35 Cloudy 33 0.6 30 -1.1 89 89 SW 8 13 30.06 1018 10 16 N/A
10:53 pm 22:53 Cloudy 33 0.6 30 -1.1 89 89 SW 6 9 30.02 1017 10 16 N/A
11:53 pm 23:53 Cloudy with Light Snow 33 0.6 30 -1.1 89 89 WSW 8 13 30.03 1017 4 6 N/A

Powered by AerisWeather